This is the latest recevied weather packets stored in our database for station/object DL1AIE-13. If no packets are shown the sender has not sent any weather packets the latest 1 day(s).
| Time | Temp. | Humidity | Pressure | Rain* | Wind** | Luminosity | Snow |
|---|---|---|---|---|---|---|---|
| 1836274817 | 11.67° C | 99% | 1020.1 hPa | 0 mm | 0.45 m/s, 184° | - | - |
| 1778019452 | 13.33° C | 99% | 1007.1 hPa | 0 mm | 0.89 m/s, 124° | - | - |
| 1778017642 | 13.33° C | 99% | 1007.2 hPa | 0 mm | 0.45 m/s, 150° | - | - |
| 1778017038 | 13.33° C | 99% | 1007.2 hPa | 0 mm | 0 m/s | - | - |
| 1778016460 | 13.33° C | 99% | 1007.4 hPa | 0 mm | 0.45 m/s, 151° | - | - |
| 1778015851 | 13.33° C | 99% | 1007.5 hPa | 0 mm | 0.45 m/s, 152° | - | - |
| 1778015248 | 13.89° C | 99% | 1007.5 hPa | 0 mm | 0.45 m/s, 154° | - | - |
| 1778014644 | 13.89° C | 99% | 1007.5 hPa | 0 mm | 0.45 m/s, 154° | - | - |
| 1778014041 | 13.89° C | 99% | 1007.5 hPa | 0 mm | 0.45 m/s, 155° | - | - |
| 1778013437 | 13.89° C | 99% | 1007.4 hPa | 0 mm | 0 m/s | - | - |
| 1778007443 | 14.44° C | 98% | 1007.1 hPa | 0.25 mm | 0 m/s | - | - |
| 1778006840 | 14.44° C | 98% | 1007 hPa | 0.25 mm | 0.45 m/s, 276° | - | - |
| 1778006236 | 14.44° C | 98% | 1007.1 hPa | 0.51 mm | 0 m/s | - | - |
| 1778005653 | 14.44° C | 98% | 1007.2 hPa | 0.51 mm | 0.45 m/s, 231° | - | - |
| 1778005049 | 15° C | 98% | 1007.2 hPa | 0.51 mm | 0.89 m/s, 252° | - | - |
| 1778004445 | 15° C | 98% | 1007.2 hPa | 0.25 mm | 0.89 m/s, 248° | - | - |
| 1778002655 | 15° C | 97% | 1007.3 hPa | 0.51 mm | 0 m/s | - | - |
| 1778002051 | 15° C | 97% | 1007.2 hPa | 0.76 mm | 0.45 m/s, 239° | - | - |
| 1778001448 | 15° C | 97% | 1007.2 hPa | 0.76 mm | 0.89 m/s, 252° | - | - |
| 1778000845 | 15° C | 97% | 1007.3 hPa | 1.02 mm | 0.45 m/s, 247° | - | - |
| 1778000241 | 15° C | 97% | 1007.3 hPa | 1.27 mm | 0 m/s | - | - |
| 1777999637 | 15° C | 97% | 1007.4 hPa | 1.27 mm | 0 m/s | - | - |
| 1777999054 | 15° C | 96% | 1007.5 hPa | 1.02 mm | 0.45 m/s, 268° | - | - |
| 1777998450 | 15° C | 96% | 1007.6 hPa | 0.76 mm | 0.45 m/s, 256° | - | - |
| 1777997847 | 15° C | 95% | 1007.5 hPa | 0.76 mm | 0.89 m/s, 261° | - | - |
* Rain latest hour (hover to see other rain measurements)
** Current wind speed in m/s (hover to see current wind gust speed)